Caldwell, NJ

10:54 PM EDT on September 25, 2016 (GMT -0400)
Essex County

Weather History for KCDW - October, 2013

Change the Weather History Date:

Sunday, October 6, 2013

  Actual Average Record
Temperature  
Mean Temperature 66 °F -  
Max Temperature 69 °F 69 °F 86 °F (1997)
Min Temperature 64 °F 45 °F 27 °F (1958)
Cooling Degree Days 2    
Growing Degree Days 16 (Base 50)    
Moisture  
Dew Point 64 °F    
Average Humidity 92    
Maximum Humidity 96    
Minimum Humidity 83    
Precipitation  
Precipitation 0.01 in - - ()
Sea Level Pressure  
Sea Level Pressure 30.08 in    
Wind  
Wind Speed 5 mph (ESE)    
Max Wind Speed 9 mph    
Max Gust Speed -    
Visibility 3 miles    
Events Rain    
Averages and records for this station are not official NWS values.
T = Trace of Precipitation, MM = Missing Value Source: NWS Daily Summary

Daily Weather History Graph

Daily Weather History Graph

Search for Another Location

Airport or City:

Trip Planner

Search our weather history database for the weather conditions in past years. The results will help you decide how hot, cold, wet, or windy it might be!

Date:

Astronomy

Oct. 06, 2013 Rise Set
Actual Time 6:59 AM EDT 6:30 PM EDT
Civil Twilight 6:31 AM EDT 6:57 PM EDT
Nautical Twilight 5:59 AM EDT 7:29 PM EDT
Astronomical Twilight 5:27 AM EDT 8:01 PM EDT
Moon 8:41 AM EDT (10/6) 7:27 PM EDT (10/6)
Length of Visible Light 12h 26m
Length of Day
11h 31m
Waxing Crescent, 3% of the Moon is Illuminated
Oct 6
Waxing Crescent
Oct 11
First Quarter
Oct 18
Full
Oct 26
Last Quarter
Nov 3
New

Hourly Weather History & Observations

Time (EDT) Temp. Dew Point Humidity Pressure Visibility Wind Dir Wind Speed Gust Speed Precip Events Conditions
12:53 AM 64.9 °F 62.1 °F 90% 30.10 in 4.0 mi SE 5.8 mph - N/A   Overcast
1:53 AM 64.9 °F 62.1 °F 90% 30.10 in 4.0 mi SE 8.1 mph - N/A   Overcast
2:53 AM 64.0 °F 62.1 °F 93% 30.09 in 3.0 mi SE 3.5 mph - N/A   Overcast
3:33 AM 64.4 °F 62.6 °F 94% 30.07 in 2.5 mi SE 3.5 mph - N/A   Overcast
3:48 AM 64.4 °F 62.6 °F 94% 30.07 in 3.0 mi South 3.5 mph - 0.00 in Rain Light Rain
3:53 AM 64.0 °F 63.0 °F 96% 30.08 in 3.0 mi Calm Calm - 0.00 in Rain Light Rain
4:35 AM 64.4 °F 62.6 °F 94% 30.07 in 4.0 mi Calm Calm - 0.00 in Rain Light Rain
4:53 AM 64.9 °F 63.0 °F 93% 30.08 in 4.0 mi Calm Calm - 0.01 in Rain Light Rain
5:53 AM 64.9 °F 63.0 °F 93% 30.09 in 4.0 mi SE 4.6 mph - 0.00 in   Overcast
6:53 AM 64.9 °F 63.0 °F 93% 30.09 in 3.0 mi SSE 4.6 mph - N/A   Overcast
7:40 AM 64.4 °F 62.6 °F 94% 30.09 in 2.0 mi SE 4.6 mph - N/A   Overcast
7:48 AM 64.4 °F 62.6 °F 94% 30.09 in 1.8 mi Variable 3.5 mph - N/A   Overcast
7:53 AM 64.9 °F 63.0 °F 93% 30.10 in 2.0 mi SE 4.6 mph - N/A   Overcast
8:26 AM 64.4 °F 62.6 °F 94% 30.10 in 3.0 mi SE 5.8 mph - N/A   Overcast
8:33 AM 64.4 °F 62.6 °F 94% 30.10 in 2.5 mi SSE 4.6 mph - N/A   Overcast
8:53 AM 64.9 °F 63.0 °F 93% 30.12 in 2.5 mi SSE 4.6 mph - N/A   Overcast
9:26 AM 64.4 °F 62.6 °F 94% 30.10 in 1.8 mi ESE 3.5 mph - N/A   Overcast
9:45 AM 64.4 °F 62.6 °F 94% 30.11 in 2.5 mi ESE 4.6 mph - N/A   Overcast
9:53 AM 64.9 °F 63.0 °F 93% 30.12 in 2.5 mi Variable 5.8 mph - N/A   Overcast
10:53 AM 66.0 °F 64.0 °F 93% 30.13 in 2.0 mi ESE 4.6 mph - N/A   Overcast
11:53 AM 66.0 °F 64.0 °F 93% 30.12 in 2.0 mi ESE 6.9 mph - N/A   Overcast
12:53 PM 66.9 °F 64.0 °F 90% 30.11 in 2.5 mi Variable 5.8 mph - N/A   Overcast
1:24 PM 68.0 °F 64.4 °F 88% 30.08 in 3.0 mi ESE 9.2 mph - N/A   Overcast
1:39 PM 68.0 °F 64.4 °F 88% 30.08 in 2.5 mi ESE 5.8 mph - N/A   Overcast
1:53 PM 68.0 °F 64.9 °F 90% 30.09 in 2.0 mi ESE 4.6 mph - N/A   Overcast
2:08 PM 66.2 °F 64.4 °F 94% 30.07 in 1.2 mi ESE 4.6 mph - N/A   Overcast
2:53 PM 66.9 °F 64.9 °F 93% 30.08 in 1.0 mi ESE 8.1 mph - 0.00 in Rain Light Rain
3:53 PM 66.0 °F 64.0 °F 93% 30.08 in 1.8 mi East 8.1 mph - 0.00 in   Overcast
4:53 PM 66.0 °F 64.0 °F 93% 30.08 in 1.5 mi East 5.8 mph - N/A   Overcast
5:53 PM 66.0 °F 64.0 °F 93% 30.08 in 1.2 mi East 8.1 mph - N/A   Overcast
6:53 PM 66.0 °F 64.0 °F 93% 30.08 in 2.0 mi ENE 5.8 mph - N/A   Overcast
7:07 PM 66.2 °F 64.4 °F 94% 30.06 in 2.0 mi ENE 8.1 mph - N/A   Overcast
7:53 PM 66.0 °F 64.0 °F 93% 30.07 in 2.0 mi East 6.9 mph - N/A   Overcast
8:28 PM 66.2 °F 64.4 °F 94% 30.06 in 2.5 mi ENE 5.8 mph - N/A   Overcast
8:53 PM 66.0 °F 64.9 °F 96% 30.07 in 2.5 mi ENE 5.8 mph - N/A   Overcast
9:49 PM 66.2 °F 64.4 °F 94% 30.05 in 3.0 mi East 3.5 mph - N/A   Overcast
9:53 PM 68.0 °F 64.9 °F 90% 30.07 in 3.0 mi Calm Calm - N/A   Overcast
10:53 PM 66.9 °F 64.9 °F 93% 30.06 in 3.0 mi East 4.6 mph - N/A   Overcast
11:36 PM 69.8 °F 64.4 °F 83% 30.04 in 5.0 mi SE 5.8 mph - N/A   Overcast
11:46 PM 68.0 °F 64.4 °F 88% 30.04 in 5.0 mi ESE 5.8 mph - N/A   Overcast
11:53 PM 68.0 °F 64.9 °F 90% 30.05 in 5.0 mi ESE 4.6 mph - N/A   Overcast